Weather in Nizhniye Narykary

Russia / Khanty-Mansi Autonomous Okrug — Yugra     63°11′19″N   64°56′29″E
temp.,
°C
wind,
m/s
gust,
m/s
humid.,
%
clouds,
%
prec.,
mm/h
press.,
hPa
HPBL,
m
4 july, mon
mon423:00+9nne3867100 0.1 1015467
02:00+9n4970100 0.0 1015409
05:00+8nne487699 0.0 1016362
08:00+10nne585880 0.0 1016929
11:00+13nne675191 0.0 10161617
14:00+15nne564399 0.0 10151668
17:00+16nne454088 0.0 10141662
20:00+14n3553100 0.0 1014217
5 july, tue
tue523:00+12nne2258100 0.0 101428
02:00+10ne1165100 0.0 101410
05:00+11wnw116390 0.0 101335
08:00+13wsw226289 0.0 1012101
11:00+18sw334419 0.0 1011937
14:00+22sw343998 0.0 10101576
17:00+15nnw3580100 0.3 1010196
20:00+14wsw2285100 0.1 101058
6 july, wed
wed623:00+13sw228974 0.2 101046
02:00+13sw229180 0.1 101051
05:00+14ssw239012 0.1 1010115
08:00+18wsw22705 0.0 1010445
11:00+23w22559 0.0 10101162
14:00+24w125097 0.1 10101619
17:00+25se1248100 0.1 10101393
20:00+22s356255 0.0 1011113
7 july, thu
thu723:00+18ssw34748 0.0 101248
02:00+16ssw34815 0.0 101260
05:00+16ssw35810 0.0 1013119
08:00+21ssw45640 0.0 1013439
11:00+26sw45492 0.0 10131296
14:00+28sw44396 0.0 10132207
17:00+28ssw44365 0.0 10132288
20:00+26ssw48500 0.0 1012243
8 july, fri
fri823:00+20ssw49590 0.0 1012131
02:00+18s410676 0.0 1012176
05:00+18ssw49745 0.0 1012205
08:00+23ssw56625 0.0 1011381
11:00+28sw564642 0.0 10101128
14:00+27wsw4644100 0.0 10091094
17:00+21nnw8128094 0.3 1010513
20:00+19nnw2491100 0.4 1011160